Location: ??????????
(54.8537°N, 38.8755°E)
Time: 01:02:06
(UTC+00:00)

Tiros 1 - Pass Details

Date: 20 September 2024
Orbit: 623 x 654 km, 48.4° (Epoch: 15 October)

Event Time Altitude Azimuth Distance (km) Brightness Sun altitude
Rises 11:46:49 0° 223° (SW) 2,892 11.8 28.0°
Reaches altitude 10° 11:49:27 10° 209° (SSW) 1,988 11.2 27.7°
Maximum altitude 11:53:06 24° 156° (SSE) 1,301 9.2 27.4°
Drops below altitude 10° 11:56:46 10° 103° (ESE) 1,997 9.5 27.0°
Sets 11:59:25 0° 90° (E) 2,909 10.1 26.7°
